Weather History for Oconto, WI

Change the Weather History Date:

Tuesday, March 19, 2013

  Actual Average Record
Temperature  
Mean Temperature 24 °F -  
Max Temperature 31 °F 39 °F 35 °F (2014)
Min Temperature 16 °F 20 °F 16 °F (2013)
Degree Days  
Heating Degree Days 42    
Moisture  
Dew Point 11 °F    
Average Humidity 64    
Maximum Humidity 86    
Minimum Humidity 41    
Precipitation  
Precipitation 0.01 in - - ()
Sea Level Pressure  
Sea Level Pressure 29.69 in    
Wind  
Wind Speed 16 mph (West)    
Max Wind Speed 24 mph    
Max Gust Speed 34 mph    
Visibility 8 miles    
Events      
Averages and records for this station are not official NWS values.
T = Trace of Precipitation, MM = Missing Value Source: NWS Daily Summary

Daily Weather History Graph

Daily Weather History Graph

Search for Another Location

Airport:

Trip Planner

Search our weather history database for the weather conditions in past years. The results will help you decide how hot, cold, wet, or windy it might be!

Date:

Astronomy

Mar. 19, 2013 Rise Set
Actual Time 6:56 AM CDT 7:03 PM CDT
Civil Twilight 6:26 AM CDT 7:32 PM CDT
Nautical Twilight 5:52 AM CDT 8:06 PM CDT
Astronomical Twilight 5:17 AM CDT 8:41 PM CDT
Moon 11:32 AM CDT (3/19) 2:03 AM CDT (3/19)
Length of Visible Light 13h 05m
Length of Day
12h 07m
Waxing Crescent, 50% of the Moon is Illuminated
Mar 19
Waxing Crescent
Mar 19
First Quarter
Mar 27
Full
Apr 2
Last Quarter
Apr 10
New

Hourly Weather History & Observations

Time (CDT) Temp. Windchill Dew Point Humidity Pressure Visibility Wind Dir Wind Speed Gust Speed Precip Events Conditions
12:15 AM 19.9 °F 5.2 °F 16.3 °F 86% 29.53 in 2.0 mi West 17.3 mph 24.2 mph N/A   Overcast
12:35 AM 19.2 °F 5.8 °F 14.9 °F 83% 29.53 in 7.0 mi West 13.8 mph 23.0 mph N/A   Overcast
12:55 AM 19.0 °F 5.0 °F 14.9 °F 84% 29.53 in 3.0 mi WSW 15.0 mph 23.0 mph N/A   Overcast
1:15 AM 18.5 °F 4.9 °F 14.7 °F 85% 29.53 in 5.0 mi West 13.8 mph - N/A   Overcast
1:35 AM 18.5 °F 4.3 °F 13.8 °F 82% 29.53 in 10.0 mi West 15.0 mph 23.0 mph N/A   Overcast
1:55 AM 18.1 °F 3.9 °F 13.5 °F 82% 29.53 in 7.0 mi West 15.0 mph 24.2 mph N/A   Overcast
2:15 AM 18.0 °F 2.6 °F 12.6 °F 79% 29.54 in 7.0 mi West 17.3 mph 26.5 mph N/A   Overcast
2:35 AM 17.6 °F 3.7 °F 12.2 °F 79% 29.54 in 10.0 mi West 13.8 mph 19.6 mph N/A   Overcast
2:55 AM 17.6 °F 5.0 °F 12.9 °F 82% 29.54 in 7.0 mi West 11.5 mph 18.4 mph N/A   Overcast
3:15 AM 17.2 °F 3.3 °F 13.1 °F 84% 29.54 in 3.0 mi West 13.8 mph 20.7 mph N/A   Overcast
3:35 AM 17.1 °F 3.0 °F 12.7 °F 83% 29.54 in 5.0 mi West 13.8 mph 20.7 mph N/A   Overcast
3:55 AM 17.1 °F 3.6 °F 12.2 °F 81% 29.54 in 5.0 mi West 12.7 mph 21.9 mph N/A   Overcast
4:15 AM 17.1 °F 2.5 °F 12.2 °F 81% 29.54 in 7.0 mi West 15.0 mph 21.9 mph N/A   Overcast
4:35 AM 17.1 °F 3.0 °F 12.4 °F 82% 29.54 in 5.0 mi West 13.8 mph 20.7 mph N/A   Overcast
4:55 AM 16.7 °F 2.6 °F 12.4 °F 83% 29.55 in 4.0 mi West 13.8 mph 19.6 mph N/A   Overcast
5:15 AM 16.7 °F 1.0 °F 11.5 °F 80% 29.55 in 7.0 mi West 17.3 mph 20.7 mph N/A   Overcast
5:35 AM 16.5 °F 2.4 °F 11.8 °F 82% 29.56 in 7.0 mi West 13.8 mph - N/A   Overcast
5:55 AM 16.3 °F 0.5 °F 11.3 °F 81% 29.56 in 7.0 mi West 17.3 mph 23.0 mph N/A   Overcast
6:15 AM 16.3 °F 1.0 °F 11.5 °F 81% 29.57 in 7.0 mi West 16.1 mph 20.7 mph N/A   Overcast
6:35 AM 16.3 °F 2.1 °F 11.3 °F 81% 29.58 in 10.0 mi West 13.8 mph 19.6 mph N/A   Overcast
6:55 AM 16.5 °F 1.3 °F 10.4 °F 77% 29.59 in 10.0 mi West 16.1 mph 24.2 mph N/A   Overcast
7:15 AM 16.5 °F 0.8 °F 10.9 °F 79% 29.60 in 7.0 mi West 17.3 mph - N/A   Overcast
7:35 AM 16.5 °F -0.6 °F 10.9 °F 79% 29.61 in 3.0 mi West 20.7 mph 28.8 mph N/A   Overcast
7:55 AM 16.2 °F 0.8 °F 11.7 °F 82% 29.61 in 1.5 mi West 16.1 mph 26.5 mph N/A   Overcast
8:15 AM 16.5 °F 0.8 °F 11.3 °F 80% 29.61 in 4.0 mi West 17.3 mph 26.5 mph N/A   Overcast
8:35 AM 16.5 °F 0.8 °F 11.3 °F 80% 29.61 in 2.0 mi West 17.3 mph 29.9 mph N/A   Overcast
8:55 AM 16.7 °F -0.7 °F 11.7 °F 81% 29.62 in 1.8 mi West 21.9 mph 28.8 mph N/A   Overcast
9:15 AM 17.1 °F 0.6 °F 11.1 °F 77% 29.63 in 2.0 mi West 19.6 mph 28.8 mph N/A   Overcast
9:35 AM 17.1 °F -0.3 °F 10.4 °F 75% 29.63 in 4.0 mi West 21.9 mph 28.8 mph N/A   Overcast
9:55 AM 18.5 °F 3.3 °F 10.2 °F 70% 29.64 in 5.0 mi West 17.3 mph 32.2 mph N/A   Overcast
10:15 AM 20.1 °F 4.6 °F 9.9 °F 64% 29.64 in 10.0 mi West 19.6 mph 26.5 mph N/A   Mostly Cloudy
10:35 AM 20.1 °F 4.2 °F 9.7 °F 64% 29.65 in 4.0 mi West 20.7 mph 31.1 mph N/A   Scattered Clouds
10:55 AM 21.4 °F 7.5 °F 9.3 °F 60% 29.66 in 7.0 mi WNW 16.1 mph 26.5 mph N/A   Scattered Clouds
11:15 AM 21.7 °F 5.9 °F 9.7 °F 60% 29.67 in 7.0 mi WNW 21.9 mph 32.2 mph N/A   Scattered Clouds
11:35 AM 22.6 °F 7.5 °F 9.9 °F 58% 29.68 in 5.0 mi WNW 20.7 mph 26.5 mph N/A   Scattered Clouds
11:55 AM 22.3 °F 7.4 °F 9.5 °F 58% 29.68 in 5.0 mi WNW 19.6 mph 29.9 mph N/A   Overcast
12:15 PM 23.2 °F 9.0 °F 10.4 °F 58% 29.69 in 5.0 mi WNW 18.4 mph 31.1 mph N/A   Scattered Clouds
12:35 PM 24.3 °F 10.0 °F 11.5 °F 58% 29.69 in 10.0 mi West 19.6 mph 29.9 mph N/A   Scattered Clouds
12:55 PM 24.8 °F 9.3 °F 11.3 °F 57% 29.70 in 10.0 mi West 24.2 mph 29.9 mph N/A   Clear
1:15 PM 26.1 °F 13.6 °F 12.4 °F 56% 29.70 in 7.0 mi West 16.1 mph 27.6 mph N/A   Clear
1:35 PM 26.6 °F 12.7 °F 12.9 °F 56% 29.70 in 7.0 mi West 20.7 mph 31.1 mph N/A   Clear
1:55 PM 27.1 °F 14.5 °F 12.9 °F 55% 29.71 in 5.0 mi WNW 17.3 mph 34.5 mph N/A   Scattered Clouds
2:15 PM 28.0 °F 16.5 °F 12.7 °F 53% 29.71 in 7.0 mi WNW 15.0 mph 25.3 mph N/A   Clear
2:35 PM 29.1 °F 17.5 °F 13.1 °F 51% 29.71 in 10.0 mi WNW 16.1 mph 21.9 mph N/A   Scattered Clouds
2:55 PM 29.5 °F 17.2 °F 13.1 °F 51% 29.73 in 7.0 mi WNW 18.4 mph 32.2 mph N/A   Scattered Clouds
3:15 PM 29.1 °F 17.1 °F 12.9 °F 51% 29.74 in 10.0 mi WNW 17.3 mph 27.6 mph N/A   Scattered Clouds
3:35 PM 30.4 °F 19.5 °F 12.9 °F 48% 29.74 in 7.0 mi WNW 15.0 mph 27.6 mph N/A   Scattered Clouds
3:55 PM 31.3 °F 19.9 °F 13.1 °F 47% 29.75 in 10.0 mi WNW 17.3 mph 23.0 mph N/A   Scattered Clouds
4:15 PM 30.7 °F 19.6 °F 12.4 °F 47% 29.76 in 10.0 mi West 16.1 mph 28.8 mph N/A   Scattered Clouds
4:35 PM 31.1 °F 20.1 °F 13.1 °F 47% 29.77 in 10.0 mi West 16.1 mph 31.1 mph N/A   Scattered Clouds
4:55 PM 31.5 °F 20.1 °F 11.7 °F 44% 29.78 in 10.0 mi WNW 17.3 mph 27.6 mph N/A   Scattered Clouds
5:15 PM 30.4 °F 20.0 °F 11.3 °F 45% 29.79 in 10.0 mi WNW 13.8 mph 26.5 mph N/A   Scattered Clouds
5:35 PM 30.6 °F 18.6 °F 10.4 °F 43% 29.80 in 10.0 mi WNW 18.4 mph 28.8 mph N/A   Scattered Clouds
5:55 PM 30.6 °F 19.4 °F 9.7 °F 42% 29.81 in 10.0 mi WNW 16.1 mph 20.7 mph N/A   Clear
6:15 PM 30.0 °F 19.5 °F 9.0 °F 41% 29.81 in 10.0 mi WNW 13.8 mph 21.9 mph N/A   Clear
6:35 PM 29.1 °F 17.5 °F 8.8 °F 43% 29.82 in 10.0 mi WNW 16.1 mph 26.5 mph N/A   Clear
6:55 PM 26.6 °F 13.4 °F 9.7 °F 49% 29.83 in 10.0 mi West 18.4 mph 25.3 mph N/A   Clear
7:15 PM 25.3 °F 13.1 °F 9.3 °F 51% 29.84 in 10.0 mi West 15.0 mph 21.9 mph N/A   Clear
7:35 PM 24.4 °F 11.5 °F 9.3 °F 53% 29.85 in 10.0 mi West 16.1 mph 25.3 mph N/A   Clear
7:55 PM 23.9 °F 9.9 °F 8.6 °F 52% 29.86 in 10.0 mi West 18.4 mph 24.2 mph N/A   Clear
8:15 PM 23.4 °F 9.6 °F 8.4 °F 53% 29.87 in 10.0 mi West 17.3 mph 26.5 mph N/A   Clear
8:35 PM 22.8 °F 9.4 °F 8.2 °F 54% 29.87 in 10.0 mi West 16.1 mph 23.0 mph N/A   Clear
8:55 PM 22.1 °F 8.9 °F 7.7 °F 54% 29.88 in 10.0 mi West 15.0 mph 21.9 mph N/A   Clear
9:15 PM 21.4 °F 7.5 °F 7.5 °F 55% 29.88 in 10.0 mi West 16.1 mph 20.7 mph N/A   Clear
9:35 PM 21.0 °F 7.6 °F 7.0 °F 55% 29.89 in 10.0 mi West 15.0 mph 20.7 mph N/A   Clear
9:55 PM 20.7 °F 7.6 °F 6.6 °F 55% 29.89 in 10.0 mi West 13.8 mph - N/A   Clear
10:15 PM 20.1 °F 8.1 °F 6.3 °F 55% 29.89 in 10.0 mi West 11.5 mph 18.4 mph N/A   Clear
10:35 PM 20.1 °F 6.9 °F 5.9 °F 54% 29.89 in 10.0 mi West 13.8 mph - N/A   Clear
10:55 PM 19.4 °F 6.6 °F 5.9 °F 56% 29.89 in 10.0 mi West 12.7 mph 16.1 mph N/A   Clear
11:15 PM 19.0 °F 7.5 °F 5.5 °F 56% 29.90 in 10.0 mi West 10.4 mph - N/A   Clear
11:35 PM 18.7 °F 8.6 °F 5.4 °F 56% 29.91 in 10.0 mi West 8.1 mph - N/A   Clear
11:55 PM 17.8 °F 6.6 °F 4.8 °F 57% 29.90 in 10.0 mi West 9.2 mph - N/A   Clear